Valparaiso, FL

4:14 PM CST on February 11, 2016 (GMT -0600)
Eglin Air Force Base | | Change Station
CLOSE
Current Station
Airport
Location: Valparaiso,
Elevation: 85 ft
Nearby Weather Stations

Elev 85 ft 30.48 °N, 86.53 °W | Updated 18 minutes ago

Scattered Clouds
Scattered Clouds
66 °F
Feels Like 66 °F
N
15
Wind Variable Wind from WSW
Gusts 26 mph

Today
High -- | Low -- °F
--% Chance of Precip.
Yesterday
High -- | Low -- °F
Precip. -- in
Pressure 30.14 in
Visibility 10.0 miles
Clouds Scattered Clouds 2300 ft
Dew Point 55 °F
Humidity 68%
Rainfall 0.00 in
Snow Depth Not available.
6:30 AM 5:30 PM
Waxing Crescent, 15% visible
METAR KVPS 112156Z 24013G23KT 10SM SCT023 19/13 A3013 RMK AO2A SLP207 T01890128 $
Pressure 30.14 in
Visibility 10.0 miles
Clouds Scattered Clouds 2300 ft
Dew Point 55 °F
Humidity 68%
Rainfall 0.00 in
Snow Depth Not available.
6:30 AM 5:30 PM
Waxing Crescent, 15% visible
METAR KVPS 112156Z 24013G23KT 10SM SCT023 19/13 A3013 RMK AO2A SLP207 T01890128 $

10-Day Weather Forecast

Almanac

Astronomy

Feb. 11, 2016 Rise Set
Actual Time
Civil Twilight
Nautical Twilight
Astronomical Twilight
Moon
Length of Visible Light
Length of Day
Tomorrow will be .
, % of the Moon is Illuminated

Today's Extremes

State Highs State Lows

Community

WunderPhotos

Upload Photos

1,892,171 photos uploaded!

WunderBlog® & News

Nearby

Air Quality

  Air Quality AQ Index Pollutant
Not available.

Snow Depth

Station Depth Elevation

Earthquake Activity

City Distance Mag. Time & Date
Minimum magnitude displayed is 2.5.

Coastal Water Temperatures

Place Temperature

Stations

Nearby Weather Stations

Station Location Temp. Windchill Dew Point Humidity Wind Precip. Elev Updated Type
                   

Watches & Warnings

There are currently no watches in effect.